This is the latest recevied weather packets stored in our database for station/object N0NPO. If no packets are shown the sender has not sent any weather packets the latest 10 day(s).
| Time | Temp. | Humidity | Pressure | Rain* | Wind** | Luminosity | Snow |
|---|---|---|---|---|---|---|---|
| 1777812621 | 8.89° C | 1% | 1017.9 hPa | 0 mm | - | 108 W/m² | - |
| 1777812317 | 8.89° C | 1% | 1018 hPa | 0 mm | - | 99 W/m² | - |
| 1777812015 | 8.89° C | 1% | 1017.9 hPa | 0 mm | - | 84 W/m² | - |
| 1777811714 | 8.33° C | 1% | 1018 hPa | 0 mm | - | 73 W/m² | - |
| 1777811410 | 8.33° C | 1% | 1017.8 hPa | 0 mm | - | 65 W/m² | - |
| 1777811106 | 8.33° C | 1% | 1017.9 hPa | 0 mm | - | 53 W/m² | - |
| 1777810803 | 7.78° C | 1% | 1017.7 hPa | 0 mm | - | 45 W/m² | - |
| 1777810500 | 7.22° C | 1% | 1017.8 hPa | 0 mm | - | 38 W/m² | - |
| 1777810196 | 7.78° C | 1% | 1017.5 hPa | 0 mm | - | 28 W/m² | - |
| 1777809893 | 7.78° C | 1% | 1017.5 hPa | 0 mm | - | 22 W/m² | - |
| 1777809591 | 7.22° C | 1% | 1017.5 hPa | 0 mm | - | 16 W/m² | - |
| 1777809289 | 6.67° C | 1% | 1017.4 hPa | 0 mm | - | 12 W/m² | - |
| 1777808986 | 6.67° C | 1% | 1017.5 hPa | 0 mm | - | 9 W/m² | - |
| 1777808684 | 7.22° C | 1% | 1017.4 hPa | 0 mm | - | 7 W/m² | - |
| 1777808379 | 7.22° C | 1% | 1017.4 hPa | 0 mm | - | 5 W/m² | - |
| 1777808078 | 6.67° C | 1% | 1017.4 hPa | 0 mm | - | 1 W/m² | - |
| 1777807776 | 6.67° C | 1% | 1017.2 hPa | 0 mm | - | 0 W/m² | - |
| 1777807474 | 6.67° C | 1% | 1017.3 hPa | 0 mm | - | 0 W/m² | - |
| 1777807168 | 7.22° C | 1% | 1017.3 hPa | 0 mm | - | 0 W/m² | - |
| 1777806867 | 7.78° C | 1% | 1017.2 hPa | 0 mm | - | 0 W/m² | - |
| 1777806563 | 7.78° C | 1% | 1017.3 hPa | 0 mm | - | 0 W/m² | - |
| 1777806259 | 7.78° C | 1% | 1017.2 hPa | 0 mm | - | 0 W/m² | - |
| 1777805955 | 7.78° C | 1% | 1016.9 hPa | 0 mm | - | 0 W/m² | - |
| 1777805652 | 7.78° C | 1% | 1017.2 hPa | 0 mm | - | 0 W/m² | - |
| 1777805350 | 7.78° C | 1% | 1016.9 hPa | 0 mm | - | 0 W/m² | - |
* Rain latest hour (hover to see other rain measurements)
** Current wind speed in m/s (hover to see current wind gust speed)